Find Yaogan 35 04 zu 01 xing

NORAD ID: 53522 Int'l Des: 2022-100 Owner: ZZB Country: CN Constellation: yaogan operational
LEOCIRCULAR

实时位置

正在加载3D地球...

关于 Yaogan 35 04 zu 01 xing

正在加载描述...

即将过境

Passes for default location (London). Set your location on the main map for personalized predictions.

高度历史

Loading altitude history...

两行轨道根数

1 53522U 22100A 26119.35082190 .00010117 00000-0 41826-3 0 9993
2 53522 35.0106 358.8836 0008401 190.8178 169.2357 15.23186019205817
Epoch: Apr 29, 2026 • Age: 14 hours

当前状态

高度 504.8 km
速度 7.61 km/s
星下点 -30.60°S, 105.68°E
发射日期 Aug 19, 2022
运行时间 3.6 years
类型 military

技术详情

分类 Payload
质量 300.00 kg
干质量 300.00 kg
总质量 300.00 kg
长度 2.50 m
直径 2.50 m
跨度 5.00 m
形状 Box + 2 Pan
制造商 DFHZ
阶段状态 In Orbit
所有者/国家 ZZB/CN

Most Searched